Starlink 35844

operational
NORAD ID: 66880 Int'l Des: 2025-283 Owner: SPXS Country: US Constellation: starlink
LEOCIRCULAR

关于 Starlink 35844

正在加载描述...

实时位置

正在加载3D地球...

即将过境

高度历史

Altitude vs Time

uPlot chart will show altitude changes over time

两行轨道根数

1 66880U 25283C 25347.58336806 -.01240406 45383-3 -35971-2 0 9990
2 66880 53.1558 69.6948 0000801 57.9381 297.5819 15.92309591 2569
Epoch: Dec 13, 2025 • Age: 16 hours

当前状态

高度 308.2 km
速度 7.72 km/s
星下点 -25.10°S, 93.91°E
发射日期 Dec 4, 2025
运行时间 9 days
类型 internet

技术详情

分类 Payload
质量 575.00 kg
干质量 530.00 kg
总质量 575.00 kg
长度 0.30 m
直径 4.10 m
跨度 29.00 m
形状 Box + pan
制造商 SPXS
平台类型 Starlink V2MO
阶段状态 In Orbit
所有者/国家 SPXS/US

大型星座

Loading constellations...